Location: Broek
(53.2737°N, 5.9967°E)
Time: 22:49:43
(UTC+00:00)

Cosmos 1703 Rocket - Pass Details

Date: 10 October 2024
Orbit: 600 x 629 km, 82.5° (Epoch: 09 November)

Event Time Altitude Azimuth Distance (km) Brightness Sun altitude
Rises 17:37:24 0° 350° (N) 2,895 7.1 -7.8°
Reaches altitude 10° 17:39:40 10° 354° (N) 1,980 6.2 -8.1°
Maximum altitude 17:44:02 65° 76° (ENE) 671 3.5 -8.8°
Drops below altitude 10° 17:48:19 10° 159° (SSE) 1,948 5.9 -9.4°
Sets 17:50:31 0° 163° (SSE) 2,844 6.8 -9.8°
